sat.trackr.live / text

‹ back to catalog

UNKNOWN

NORAD 82708

UNKNOWN UNKNOWN UNKNOWN

§ Identity

Operator
Country
Launch date
Launch site
Launch vehicle
Mass (kg)
RCS (m²)

External: N2YO · Heavens-Above

§ Orbital elements

Epoch: 2026-09-17T02:37:29.443584Z

Period
111.54 min
Inclination
102.1469°
Eccentricity
0.0065993
Mean motion
12.91058347 rev/d
Perigee alt
1,246.7 km
Apogee alt
1,348.0 km
Semi-major
7,675.5 km
B*
2.9723e-3
RAAN
135.0892°
Arg perigee
78.7153°
Mean anomaly
282.1346°
Rev number
55,943

§ Raw data

UNKNOWN1 82708U          26260.10936856  .00000744  00000+0  29723-2 0  99982 82708 102.1469 135.0892 0065993  78.7153 282.1346 12.91058347559433

JSON: /api/v1/satellites/82708 · /tle

For live sub-satellite position, see the globe view (requires WebGL).

§ Visibility from observer

Set your observer location to see the next 7 days of passes ≥ 10°. The values pass through the URL so the page stays shareable.

No JS? Fill the form by hand. The geolocation button needs JavaScript.